CW3699 Weather Reports


Display with metric or nautical units.
time (UTC)temp
F
wind
direction
speed
MPH
gust
MPH
rain 1hr
in
rain 24hr
in
rain mn
in
humidity
%
barometer
mb
20260502170413 47 309 2.0 6.0 0.00 0.00 0.00 59 1016.5
20260502163413 48 21 3.0 6.0 0.00 0.00 0.00 62 1016.7
20260502162913 48 9 3.0 6.0 0.00 0.00 0.00 63 1016.7
20260502162413 47 8 3.0 6.0 0.00 0.00 0.00 64 1016.8
20260502161913 47 4 3.0 5.0 0.00 0.00 0.00 65 1016.8
20260502161413 47 12 3.0 5.0 0.00 0.00 0.00 63 1016.9
20260502160913 47 0 3.0 6.0 0.00 0.00 0.00 65 1017.0
20260502160413 47 3 3.0 5.0 0.00 0.00 0.00 65 1017.0
20260502151913 46 8 2.0 5.0 0.00 0.00 0.00 69 1017.1
20260502151413 46 352 3.0 5.0 0.00 0.00 0.00 69 1017.1
20260502150913 46 21 3.0 5.0 0.00 0.00 0.00 69 1017.1
20260502150413 46 30 3.0 8.0 0.00 0.00 0.00 70 1017.1
20260502130412 38 282 3.0 7.0 0.00 0.00 0.00 81 1017.6
20260502123412 36 220 2.0 6.0 0.00 0.00 0.00 82 1017.8
20260502122911 35 333 2.0 6.0 0.00 0.00 0.00 83 1017.8
20260502122413 35 166 2.0 5.0 0.00 0.00 0.00 84 1017.7
20260502121912 34 250 2.0 7.0 0.00 0.00 0.00 84 1017.7
20260502120913 33 190 2.0 5.0 0.00 0.01 0.00 86 1017.7
20260502120412 33 297 2.0 7.0 0.00 0.01 0.00 86 1017.7
20260502115912 32 271 2.0 6.0 0.00 0.01 0.00 87 1017.8
20260502115412 32 235 1.0 7.0 0.00 0.01 0.00 87 1017.7
20260502114912 32 221 3.0 6.0 0.00 0.01 0.00 87 1017.8
20260502114412 31 232 3.0 6.0 0.00 0.01 0.00 87 1017.8
20260502113912 31 228 2.0 5.0 0.00 0.01 0.00 87 1017.8
20260502113412 31 239 3.0 5.0 0.00 0.01 0.00 87 1017.7
20260502112912 31 229 2.0 6.0 0.00 0.01 0.00 88 1017.6
20260502112412 31 219 2.0 3.0 0.00 0.01 0.00 87 1017.6
20260502111412 30 203 3.0 5.0 0.00 0.01 0.00 88 1017.6
20260502110912 30 207 2.0 5.0 0.00 0.01 0.00 88 1017.7
20260502110413 30 217 3.0 6.0 0.00 0.01 0.00 88 1017.7
20260502105913 30 217 2.0 3.0 0.00 0.01 0.00 88 1017.7
20260502105413 29 215 3.0 5.0 0.00 0.01 0.00 89 1017.6
20260502104912 29 213 3.0 7.0 0.00 0.01 0.00 89 1017.6
20260502103912 29 232 3.0 7.0 0.00 0.01 0.00 89 1017.5
20260502103412 28 221 3.0 5.0 0.00 0.01 0.00 89 1017.6
20260502102912 28 211 2.0 3.0 0.00 0.01 0.00 88 1017.6
20260502101412 28 199 2.0 3.0 0.00 0.01 0.00 88 1017.5
20260502100913 28 193 2.0 3.0 0.00 0.01 0.00 88 1017.4
20260502100413 28 209 2.0 5.0 0.00 0.01 0.00 89 1017.4
20260502091412 28 192 2.0 3.0 0.00 0.01 0.00 88 1017.4
20260502090913 28 203 2.0 3.0 0.00 0.01 0.00 88 1017.4
20260502090413 28 203 2.0 3.0 0.00 0.01 0.00 88 1017.4
20260502071411 31 197 1.0 5.0 0.00 0.01 0.00 84 1017.2
20260502070913 31 172 2.0 6.0 0.00 0.01 0.00 84 1017.2
20260502065911 31 229 1.0 3.0 0.00 0.01 0.00 84 1017.2
20260502064912 31 199 1.0 3.0 0.00 0.01 0.00 83 1017.2
20260502064412 31 280 2.0 5.0 0.00 0.01 0.00 83 1017.3
20260502063912 31 172 1.0 3.0 0.00 0.01 0.00 83 1017.3
20260502063414 31 159 2.0 3.0 0.00 0.01 0.00 83 1017.3
20260502062911 31 214 1.0 3.0 0.00 0.01 0.00 83 1017.3
20260502062412 31 176 2.0 6.0 0.00 0.01 0.00 83 1017.4
20260502061913 31 221 2.0 3.0 0.00 0.01 0.00 83 1017.4
20260502060912 32 214 0.0 3.0 0.00 0.01 0.00 82 1017.4
20260502060412 32 193 1.0 3.0 0.00 0.01 0.00 82 1017.5
20260502055412 32 217 1.0 3.0 0.00 0.01 0.00 81 1017.5
20260502054912 32 222 1.0 3.0 0.00 0.01 0.00 81 1017.5
20260502054411 32 298 1.0 3.0 0.00 0.01 0.00 81 1017.5
20260502053912 33 271 1.0 3.0 0.00 0.01 0.00 81 1017.6
20260502053413 33 330 1.0 5.0 0.00 0.01 0.00 81 1017.5
20260502052911 33 289 1.0 3.0 0.00 0.01 0.00 80 1017.6
20260502052412 33 254 1.0 3.0 0.00 0.01 0.00 80 1017.6
20260502051912 34 52 1.0 3.0 0.00 0.01 0.00 80 1017.6
20260502051411 34 328 1.0 3.0 0.00 0.01 0.00 80 1017.6
20260502050912 34 330 1.0 3.0 0.00 0.01 0.00 80 1017.6
20260502050412 34 14 2.0 5.0 0.00 0.01 0.00 80 1017.5
20260502045912 34 22 1.0 5.0 0.00 0.01 0.00 80 1017.5
20260502045412 34 305 3.0 7.0 0.00 0.01 0.00 80 1017.5
20260502044911 34 308 1.0 3.0 0.00 0.01 0.00 80 1017.5
20260502043912 35 345 1.0 3.0 0.00 0.01 0.00 79 1017.6
20260502043412 35 199 1.0 3.0 0.00 0.01 0.00 78 1017.6
20260502042913 36 55 0.0 2.0 0.00 0.01 0.00 78 1017.6
20260502042411 36 34 1.0 3.0 0.00 0.01 0.00 78 1017.6
20260502041912 36 330 1.0 3.0 0.00 0.01 0.00 77 1017.6
20260502041411 37 315 2.0 3.0 0.00 0.01 0.00 77 1017.6
20260502040911 37 345 2.0 6.0 0.00 0.01 0.00 78 1017.6
20260502040412 37 344 3.0 9.0 0.00 0.01 0.00 78 1017.6
20260502035912 37 355 3.0 7.0 0.00 0.01 0.01 77 1017.6
20260502035412 37 336 4.0 8.0 0.00 0.01 0.01 77 1017.6
20260502034912 37 321 3.0 7.0 0.00 0.01 0.01 77 1017.6
20260502034412 37 340 2.0 5.0 0.00 0.01 0.01 77 1017.6
20260502033912 37 335 3.0 7.0 0.00 0.02 0.01 77 1017.6
20260502033412 37 339 3.0 7.0 0.00 0.02 0.01 76 1017.6
20260502032912 37 334 4.0 8.0 0.00 0.02 0.01 76 1017.6
20260502032412 37 342 3.0 6.0 0.00 0.02 0.01 76 1017.6
20260502031911 37 337 3.0 8.0 0.00 0.02 0.01 75 1017.6
20260502031411 38 338 3.0 5.0 0.00 0.02 0.01 74 1017.6
20260502030912 38 333 2.0 5.0 0.00 0.02 0.01 74 1017.6
20260502030412 38 347 2.0 6.0 0.00 0.02 0.01 73 1017.6
20260502025912 38 338 2.0 6.0 0.00 0.02 0.01 73 1017.6
20260502025412 38 338 2.0 6.0 0.00 0.02 0.01 73 1017.6
20260502024912 38 347 2.0 5.0 0.00 0.02 0.01 74 1017.6
20260502024411 38 352 2.0 3.0 0.00 0.02 0.01 73 1017.6
20260502023912 38 354 3.0 6.0 0.00 0.02 0.01 72 1017.6
20260502023411 38 342 2.0 6.0 0.00 0.02 0.01 76 1017.6
20260502022912 38 1 1.0 3.0 0.00 0.02 0.01 75 1017.6
20260502022411 38 25 2.0 3.0 0.00 0.02 0.01 76 1017.6
20260502021911 38 24 2.0 3.0 0.00 0.02 0.01 77 1017.6
20260502021412 38 21 2.0 3.0 0.00 0.02 0.01 77 1017.7
20260502020912 38 20 2.0 3.0 0.00 0.02 0.01 76 1017.6
20260502020412 38 1 1.0 3.0 0.00 0.02 0.01 75 1017.6
20260502015911 39 348 1.0 3.0 0.00 0.02 0.01 77 1017.6
20260502014911 39 18 1.0 3.0 0.00 0.02 0.01 76 1017.6
20260502014412 39 21 2.0 3.0 0.00 0.02 0.01 74 1017.6
20260502013912 39 13 2.0 3.0 0.00 0.02 0.01 75 1017.5
20260502013412 39 20 2.0 3.0 0.00 0.02 0.01 75 1017.5
20260502012912 39 14 2.0 3.0 0.00 0.02 0.01 75 1017.4
20260502012412 39 23 2.0 3.0 0.00 0.02 0.01 73 1017.3
20260502011911 40 21 2.0 3.0 0.00 0.02 0.01 72 1017.3
20260502011412 40 13 2.0 3.0 0.00 0.02 0.01 72 1017.3
20260502010911 40 9 3.0 5.0 0.00 0.02 0.01 70 1017.3
20260502010412 40 13 3.0 5.0 0.00 0.02 0.01 68 1017.2
20260502005911 40 344 2.0 6.0 0.00 0.02 0.01 69 1017.2
20260502005411 40 346 2.0 6.0 0.00 0.02 0.01 68 1017.1
20260502004911 40 345 3.0 7.0 0.00 0.02 0.01 66 1017.1
20260502003911 40 341 3.0 7.0 0.00 0.02 0.01 70 1017.0
20260502003412 40 350 3.0 7.0 0.00 0.02 0.01 69 1017.0
20260502002411 40 342 2.0 7.0 0.00 0.02 0.01 67 1017.0
20260502001912 40 347 3.0 7.0 0.00 0.02 0.01 68 1017.0
20260502001412 40 328 3.0 9.0 0.00 0.02 0.01 68 1016.9
20260502000911 40 343 2.0 3.0 0.00 0.02 0.01 68 1016.9
20260502000412 40 339 2.0 3.0 0.00 0.02 0.01 69 1016.7
20260501235911 40 359 2.0 3.0 0.00 0.02 0.01 69 1016.7
20260501234912 41 0 2.0 9.0 0.00 0.02 0.01 70 1016.8
20260501234411 41 6 2.0 6.0 0.00 0.02 0.01 74 1016.7
20260501233911 41 326 1.0 3.0 0.00 0.02 0.01 72 1016.7
20260501233412 41 339 2.0 3.0 0.00 0.02 0.01 74 1016.7
20260501232911 41 343 1.0 3.0 0.00 0.02 0.01 72 1016.7
20260501232412 41 335 1.0 3.0 0.00 0.02 0.01 72 1016.6
20260501231412 41 1 2.0 3.0 0.00 0.02 0.01 74 1016.7
20260501230913 41 326 1.0 3.0 0.00 0.02 0.01 76 1016.7
20260501230411 41 315 1.0 3.0 0.00 0.02 0.01 75 1016.7
20260501225911 41 297 1.0 5.0 0.00 0.02 0.01 76 1016.7
20260501225412 41 345 1.0 3.0 0.00 0.02 0.01 76 1016.6
20260501224411 41 353 2.0 3.0 0.00 0.02 0.01 75 1016.6
20260501223911 41 343 2.0 3.0 0.00 0.02 0.01 72 1016.5
20260501223411 41 343 2.0 3.0 0.00 0.02 0.01 74 1016.5
20260501222412 41 350 3.0 6.0 0.00 0.02 0.01 72 1016.5
20260501221412 41 336 2.0 3.0 0.00 0.02 0.01 63 1016.3
20260501220911 41 336 3.0 3.0 0.00 0.02 0.01 61 1016.3
20260501215911 41 336 3.0 7.0 0.00 0.02 0.01 63 1016.2
20260501215411 42 339 4.0 10.0 0.00 0.02 0.01 70 1016.3
20260501214912 42 4 3.0 5.0 0.00 0.02 0.01 71 1016.1
20260501214411 42 326 2.0 5.0 0.00 0.02 0.01 70 1016.1
20260501213912 42 65 1.0 3.0 0.00 0.02 0.01 69 1016.0
20260501213410 42 293 2.0 5.0 0.00 0.02 0.01 69 1015.9
20260501212911 42 342 2.0 6.0 0.00 0.02 0.01 68 1015.9
20260501212411 43 312 1.0 5.0 0.00 0.02 0.01 70 1015.9
20260501211912 43 304 2.0 3.0 0.00 0.03 0.01 70 1015.8
20260501211411 43 294 2.0 3.0 0.00 0.03 0.01 71 1015.9
20260501210911 43 329 2.0 6.0 0.00 0.03 0.01 70 1015.8
20260501205411 43 17 2.0 3.0 0.00 0.03 0.01 69 1015.8
20260501204911 43 332 2.0 7.0 0.00 0.03 0.01 68 1015.7
20260501203912 43 321 2.0 6.0 0.00 0.03 0.01 67 1015.8
20260501203413 43 349 1.0 5.0 0.00 0.03 0.01 68 1015.8
20260501202911 43 353 2.0 3.0 0.00 0.03 0.01 68 1015.8
20260501202411 43 306 2.0 3.0 0.00 0.03 0.01 70 1015.8
20260501201411 43 330 2.0 7.0 0.00 0.03 0.01 69 1015.8
20260501200911 43 338 2.0 3.0 0.00 0.03 0.01 69 1015.8
20260501200413 43 8 2.0 5.0 0.00 0.03 0.01 69 1015.9
20260501195911 43 332 2.0 5.0 0.00 0.03 0.01 69 1015.8
20260501195411 43 335 2.0 5.0 0.00 0.03 0.01 67 1015.8
20260501194411 43 352 3.0 5.0 0.00 0.03 0.01 68 1015.7
20260501193911 44 349 3.0 9.0 0.00 0.03 0.01 69 1015.7
20260501193411 43 353 3.0 6.0 0.00 0.03 0.01 70 1015.7
20260501192912 43 332 3.0 3.0 0.00 0.03 0.01 70 1015.7
20260501192411 43 302 3.0 7.0 0.00 0.03 0.01 69 1015.6
20260501191410 42 339 2.0 7.0 0.00 0.03 0.01 66 1015.7
20260501190411 42 330 3.0 6.0 0.00 0.03 0.01 66 1015.7
20260501185910 42 300 2.0 7.0 0.00 0.03 0.01 66 1015.7
20260501185411 42 282 3.0 9.0 0.00 0.03 0.01 65 1015.7
20260501184412 42 278 3.0 7.0 0.00 0.03 0.01 65 1015.7
20260501183911 42 264 3.0 7.0 0.00 0.03 0.01 66 1015.7
20260501182911 43 289 3.0 10.0 0.00 0.03 0.01 66 1015.7
20260501182411 43 323 2.0 6.0 0.00 0.03 0.01 66 1015.7
20260501181410 43 260 2.0 9.0 0.00 0.03 0.01 67 1015.6
20260501180412 44 306 3.0 12.0 0.00 0.03 0.01 67 1015.6